Time,TemperatureF,DewpointF,PressureIn,WindDirection,WindDirectionDegrees,WindSpeedMPH,WindSpeedGustMPH,Humidity,HourlyPrecipIn,Conditions,Clouds,dailyrainin,SolarRadiationWatts/m^2,SoftwareType,DateUTC
2013-06-26 00:11:00,53.0,48.0,-100.00,WNW,293,2.0,6.0,84,0.00,,,0.03,0.000000,,2013-06-26 07:11:00,
2013-06-26 00:22:00,53.0,48.0,-100.00,WNW,293,2.0,6.0,84,0.00,,,0.03,0.000000,,2013-06-26 07:22:00,
2013-06-26 00:33:00,53.0,48.0,-100.00,WNW,293,2.0,6.0,84,0.00,,,0.03,0.000000,,2013-06-26 07:33:00,
2013-06-26 00:43:00,53.0,48.0,-100.00,WNW,293,2.0,6.0,84,0.00,,,0.03,0.000000,,2013-06-26 07:43:00,
2013-06-26 01:22:00,52.0,47.0,-100.00,NW,316,1.0,8.0,83,0.00,,,0.03,0.000000,,2013-06-26 08:22:00,
2013-06-26 01:33:00,52.0,47.0,-100.00,NW,316,1.0,8.0,83,0.00,,,0.03,0.000000,,2013-06-26 08:33:00,
2013-06-26 01:42:00,52.0,47.0,-100.00,NW,316,1.0,8.0,83,0.00,,,0.03,0.000000,,2013-06-26 08:42:00,
2013-06-26 02:11:00,50.0,45.0,-100.00,NNE,14,3.0,6.0,82,0.00,,,0.03,0.000000,,2013-06-26 09:11:00,
2013-06-26 02:22:00,50.0,45.0,-100.00,NNE,14,3.0,6.0,82,0.00,,,0.03,0.000000,,2013-06-26 09:22:00,
2013-06-26 02:32:00,50.0,45.0,-100.00,NNE,14,3.0,6.0,82,0.00,,,0.03,0.000000,,2013-06-26 09:32:00,
2013-06-26 02:43:00,50.0,45.0,-100.00,NNE,14,3.0,6.0,82,0.00,,,0.03,0.000000,,2013-06-26 09:43:00,
2013-06-26 03:12:00,50.0,43.0,-100.00,WNW,282,0.0,5.0,77,0.00,,,0.03,0.000000,,2013-06-26 10:12:00,
2013-06-26 03:22:00,50.0,43.0,-100.00,WNW,282,0.0,5.0,77,0.00,,,0.03,0.000000,,2013-06-26 10:22:00,
2013-06-26 03:34:00,50.0,43.0,-100.00,WNW,282,0.0,5.0,77,0.00,,,0.03,0.000000,,2013-06-26 10:34:00,
2013-06-26 03:43:00,50.0,43.0,-100.00,WNW,282,0.0,5.0,77,0.00,,,0.03,0.000000,,2013-06-26 10:43:00,
2013-06-26 04:11:00,49.0,45.0,-100.00,WSW,250,0.0,5.0,86,0.00,,,0.03,0.000000,,2013-06-26 11:11:00,
2013-06-26 04:22:00,49.0,45.0,-100.00,WSW,250,0.0,5.0,86,0.00,,,0.03,0.000000,,2013-06-26 11:22:00,
2013-06-26 04:32:00,49.0,45.0,-100.00,WSW,250,0.0,5.0,86,0.00,,,0.03,0.000000,,2013-06-26 11:32:00,
2013-06-26 04:43:00,49.0,45.0,-100.00,WSW,250,0.0,5.0,86,0.00,,,0.03,0.000000,,2013-06-26 11:43:00,
2013-06-26 05:12:00,48.0,42.0,-100.00,West,260,4.0,6.0,81,0.00,,,0.03,0.000000,,2013-06-26 12:12:00,
2013-06-26 05:22:00,48.0,42.0,-100.00,West,260,4.0,6.0,81,0.00,,,0.03,0.000000,,2013-06-26 12:22:00,
2013-06-26 05:33:00,48.0,42.0,-100.00,West,260,4.0,6.0,81,0.00,,,0.03,0.000000,,2013-06-26 12:33:00,
2013-06-26 05:42:00,48.0,42.0,-100.00,West,260,4.0,6.0,81,0.00,,,0.03,0.000000,,2013-06-26 12:42:00,
2013-06-26 06:22:00,49.0,44.0,-100.00,SE,128,0.0,7.0,84,0.00,,,0.03,0.000000,,2013-06-26 13:22:00,
2013-06-26 06:34:00,49.0,44.0,-100.00,SE,128,0.0,7.0,84,0.00,,,0.03,0.000000,,2013-06-26 13:34:00,
2013-06-26 06:42:00,49.0,44.0,-100.00,SE,128,0.0,7.0,84,0.00,,,0.03,0.000000,,2013-06-26 13:42:00,
2013-06-26 07:23:00,51.0,46.0,-100.00,WSW,239,0.0,4.0,84,0.00,,,0.03,0.000000,,2013-06-26 14:23:00,
2013-06-26 07:33:00,51.0,46.0,-100.00,WSW,239,0.0,4.0,84,0.00,,,0.03,0.000000,,2013-06-26 14:33:00,
2013-06-26 07:42:00,51.0,46.0,-100.00,WSW,239,0.0,4.0,84,0.00,,,0.03,0.000000,,2013-06-26 14:42:00,
2013-06-26 08:11:00,54.0,47.0,-100.00,SSW,192,0.0,6.0,78,0.00,,,0.03,0.000000,,2013-06-26 15:11:00,
2013-06-26 08:22:00,54.0,47.0,-100.00,SSW,192,0.0,6.0,78,0.00,,,0.03,0.000000,,2013-06-26 15:22:00,
2013-06-26 08:34:00,54.0,47.0,-100.00,SSW,192,0.0,6.0,78,0.00,,,0.03,0.000000,,2013-06-26 15:34:00,
2013-06-26 08:43:00,54.0,47.0,-100.00,SSW,192,0.0,6.0,78,0.00,,,0.03,0.000000,,2013-06-26 15:43:00,
2013-06-26 09:11:00,57.0,47.0,-100.00,SSE,165,8.0,10.0,70,0.00,,,0.03,99.000000,,2013-06-26 16:11:00,
2013-06-26 09:22:00,57.0,47.0,-100.00,SSE,165,8.0,10.0,70,0.00,,,0.03,99.000000,,2013-06-26 16:22:00,
2013-06-26 09:34:00,57.0,47.0,-100.00,SSE,165,8.0,10.0,70,0.00,,,0.03,99.000000,,2013-06-26 16:34:00,
2013-06-26 09:43:00,57.0,47.0,-100.00,SSE,165,8.0,10.0,70,0.00,,,0.03,99.000000,,2013-06-26 16:43:00,
2013-06-26 10:11:00,59.0,48.0,-100.00,SSE,168,7.0,14.0,66,0.00,,,0.03,83.000000,,2013-06-26 17:11:00,
2013-06-26 10:23:00,59.0,48.0,-100.00,SSE,168,7.0,14.0,66,0.00,,,0.03,83.000000,,2013-06-26 17:23:00,
2013-06-26 10:33:00,59.0,48.0,-100.00,SSE,168,7.0,14.0,66,0.00,,,0.03,83.000000,,2013-06-26 17:33:00,
2013-06-26 10:43:00,59.0,48.0,-100.00,SSE,168,7.0,14.0,66,0.00,,,0.03,83.000000,,2013-06-26 17:43:00,
2013-06-26 11:22:00,63.0,47.0,-100.00,South,184,5.0,11.0,56,0.00,,,0.01,361.000000,,2013-06-26 18:22:00,
2013-06-26 11:34:00,63.0,47.0,-100.00,South,184,5.0,11.0,56,0.00,,,0.01,361.000000,,2013-06-26 18:34:00,
2013-06-26 11:42:00,63.0,47.0,-100.00,South,184,5.0,11.0,56,0.00,,,0.01,361.000000,,2013-06-26 18:42:00,
2013-06-26 12:11:00,62.0,47.0,-100.00,South,170,10.0,15.0,58,0.00,,,0.00,403.000000,,2013-06-26 19:11:00,
2013-06-26 12:22:00,62.0,47.0,-100.00,South,170,10.0,15.0,58,0.00,,,0.00,403.000000,,2013-06-26 19:22:00,
2013-06-26 12:32:00,62.0,47.0,-100.00,South,170,10.0,15.0,58,0.00,,,0.00,403.000000,,2013-06-26 19:32:00,
2013-06-26 12:42:00,62.0,47.0,-100.00,South,170,10.0,15.0,58,0.00,,,0.00,403.000000,,2013-06-26 19:42:00,
2013-06-26 14:11:00,67.0,51.0,-100.00,SSW,193,8.0,19.0,56,-99.99,,,0.00,414.000000,,2013-06-26 21:11:00,
2013-06-26 14:23:00,67.0,51.0,-100.00,SSW,193,8.0,19.0,56,-99.99,,,0.00,414.000000,,2013-06-26 21:23:00,
2013-06-26 14:33:00,67.0,51.0,-100.00,SSW,193,8.0,19.0,56,-99.99,,,0.00,414.000000,,2013-06-26 21:33:00,
2013-06-26 14:43:00,67.0,51.0,-100.00,SSW,193,8.0,19.0,56,-99.99,,,0.00,414.000000,,2013-06-26 21:43:00,
2013-06-26 15:21:00,69.0,50.0,-100.00,SSW,196,11.0,18.0,51,0.00,,,0.00,435.000000,,2013-06-26 22:21:00,
2013-06-26 15:33:00,69.0,50.0,-100.00,SSW,196,11.0,18.0,51,0.00,,,0.00,435.000000,,2013-06-26 22:33:00,
2013-06-26 15:43:00,69.0,50.0,-100.00,SSW,196,11.0,18.0,51,0.00,,,0.00,435.000000,,2013-06-26 22:43:00,
2013-06-26 16:11:00,68.0,49.0,-100.00,South,189,10.0,20.0,51,0.00,,,0.00,346.000000,,2013-06-26 23:11:00,
2013-06-26 16:22:00,68.0,49.0,-100.00,South,189,10.0,20.0,51,0.00,,,0.00,346.000000,,2013-06-26 23:22:00,
2013-06-26 16:34:00,68.0,49.0,-100.00,South,189,10.0,20.0,51,0.00,,,0.00,346.000000,,2013-06-26 23:34:00,
2013-06-26 16:43:00,68.0,49.0,-100.00,South,189,10.0,20.0,51,0.00,,,0.00,346.000000,,2013-06-26 23:43:00,
2013-06-26 17:11:00,70.0,49.0,-100.00,SSW,194,10.0,17.0,48,0.00,,,0.00,397.000000,,2013-06-27 00:11:00,
2013-06-26 17:22:00,70.0,49.0,-100.00,SSW,194,10.0,17.0,48,0.00,,,0.00,397.000000,,2013-06-27 00:22:00,
2013-06-26 17:33:00,70.0,49.0,-100.00,SSW,194,10.0,17.0,48,0.00,,,0.00,397.000000,,2013-06-27 00:33:00,
2013-06-26 17:42:00,70.0,49.0,-100.00,SSW,194,10.0,17.0,48,0.00,,,0.00,397.000000,,2013-06-27 00:42:00,
2013-06-26 18:11:00,68.0,50.0,-100.00,SSW,212,7.0,16.0,53,0.00,,,0.00,128.000000,,2013-06-27 01:11:00,
2013-06-26 18:21:00,68.0,50.0,-100.00,SSW,212,7.0,16.0,53,0.00,,,0.00,128.000000,,2013-06-27 01:21:00,
2013-06-26 18:32:00,68.0,50.0,-100.00,SSW,212,7.0,16.0,53,0.00,,,0.00,128.000000,,2013-06-27 01:32:00,
2013-06-26 18:42:00,68.0,50.0,-100.00,SSW,212,7.0,16.0,53,0.00,,,0.00,128.000000,,2013-06-27 01:42:00,
2013-06-26 19:11:00,67.0,48.0,-100.00,SSW,212,8.0,14.0,51,0.00,,,0.00,21.000000,,2013-06-27 02:11:00,
2013-06-26 19:22:00,67.0,48.0,-100.00,SSW,212,8.0,14.0,51,0.00,,,0.00,21.000000,,2013-06-27 02:22:00,
2013-06-26 19:32:00,67.0,48.0,-100.00,SSW,212,8.0,14.0,51,0.00,,,0.00,21.000000,,2013-06-27 02:32:00,
2013-06-26 19:42:00,67.0,48.0,-100.00,SSW,212,8.0,14.0,51,0.00,,,0.00,21.000000,,2013-06-27 02:42:00,
2013-06-26 20:11:00,66.0,52.0,-100.00,SSW,192,6.0,11.0,60,0.00,,,0.00,0.000000,,2013-06-27 03:11:00,
2013-06-26 20:21:00,66.0,52.0,-100.00,SSW,192,6.0,11.0,60,0.00,,,0.00,0.000000,,2013-06-27 03:21:00,
2013-06-26 20:32:00,66.0,52.0,-100.00,SSW,192,6.0,11.0,60,0.00,,,0.00,0.000000,,2013-06-27 03:32:00,
2013-06-26 20:42:00,66.0,52.0,-100.00,SSW,192,6.0,11.0,60,0.00,,,0.00,0.000000,,2013-06-27 03:42:00,
2013-06-26 21:11:00,60.0,52.0,-100.00,SSW,194,9.0,17.0,76,0.00,,,0.00,0.000000,,2013-06-27 04:11:00,
2013-06-26 21:22:00,60.0,52.0,-100.00,SSW,194,9.0,17.0,76,0.00,,,0.00,0.000000,,2013-06-27 04:22:00,
2013-06-26 21:32:00,60.0,52.0,-100.00,SSW,194,9.0,17.0,76,0.00,,,0.00,0.000000,,2013-06-27 04:32:00,
2013-06-26 21:42:00,60.0,52.0,-100.00,SSW,194,9.0,17.0,76,0.00,,,0.00,0.000000,,2013-06-27 04:42:00,
2013-06-26 22:12:00,59.0,51.0,-100.00,West,260,3.0,11.0,74,0.02,,,0.02,0.000000,,2013-06-27 05:12:00,
2013-06-26 22:21:00,59.0,51.0,-100.00,West,260,3.0,11.0,74,0.02,,,0.02,0.000000,,2013-06-27 05:21:00,
2013-06-26 22:32:00,59.0,51.0,-100.00,West,260,3.0,11.0,74,0.02,,,0.02,0.000000,,2013-06-27 05:32:00,
2013-06-26 22:42:00,59.0,51.0,-100.00,West,260,3.0,11.0,74,0.02,,,0.02,0.000000,,2013-06-27 05:42:00,
2013-06-26 23:12:00,59.0,46.0,-100.00,North,4,0.0,7.0,63,0.00,,,0.02,0.000000,,2013-06-27 06:12:00,
2013-06-26 23:22:00,59.0,46.0,-100.00,North,4,0.0,7.0,63,0.00,,,0.02,0.000000,,2013-06-27 06:22:00,
2013-06-26 23:34:00,59.0,46.0,-100.00,North,4,0.0,7.0,63,0.00,,,0.02,0.000000,,2013-06-27 06:34:00,
2013-06-26 23:43:00,59.0,46.0,-100.00,North,4,0.0,7.0,63,0.00,,,0.02,0.000000,,2013-06-27 06:43:00,